[ hide orbit diagram ]
For accurate long-term ephemerides, please instead use our Horizons system.This orbit viewer was implemented using two-body methods, and hence should not be used for determining accurate long-term trajectories (over several years or decades) or planetary encounter circumstances.
Orbital Elements at Epoch 2459200.5 (2020-Dec-17.0) TDB
Reference: JPL 11 (heliocentric ecliptic J2000)
Element | Value | Uncertainty (1-sigma) | Units |
e | .2035992550232884 | 4.3483e-08 | |
a | 2.24874704930523 | 1.2432e-08 | au |
q | 1.790903825330868 | 1.0034e-07 | au |
i | 2.127662326928736 | 5.0856e-06 | deg |
node | 334.8266213950457 | 0.00015 | deg |
peri | 120.0475626255112 | 0.00015111 | deg |
M | 176.2375373590025 | 1.7655e-05 | deg |
tp | 2458597.516745538738 (2019-Apr-24.01674554) | 5.7322e-05 | TDB |
period | 1231.71246522735 3.37 | 1.0214e-05 2.796e-08 | d yr |
n | .2922760060998091 | 2.4237e-09 | deg/d |
Q | 2.706590273279593 | 1.4963e-08 | au |
|
| | Orbit Determination Parameters
Additional Information
|
[ show covariance matrix ]
Physical Parameter Table
Parameter |
Symbol |
Value |
Units |
Sigma |
Reference |
Notes |
absolute magnitude |
H |
18.12 |
|
n/a |
E2021B25 |
|
|
357986 (2006 CM49) Discovered 2006-Feb-03 by LINEAR at Socorro |
Reference: 20130327/Numbers.arc | Last Updated: 2013-03-29 |
|
[ show close-approach data ]
|